IU1FIL-3 Weather Reports


time (UTC)temp
C
wind
direction
speed
KPH
gust
KPH
rain 1hr
cm
rain 24hr
cm
rain mn
cm
humidity
%
barometer
mb
20260503210815 13 0.0 0.0 0.00 0.00 0.00 10 1020.5
20260503205813 13 0.0 0.0 0.00 0.00 0.00 10 1020.6
20260503204811 13 0.0 0.0 0.00 0.00 0.00 10 1020.7
20260503203810 13 0.0 0.0 0.00 0.00 0.00 10 1020.6
20260503202808 13 0.0 0.0 0.00 0.00 0.00 10 1020.6
20260503201806 14 0.0 0.0 0.00 0.00 0.00 10 1020.6
20260503200804 14 0.0 0.0 0.00 0.00 0.00 10 1020.5
20260503195802 14 0.0 0.0 0.00 0.00 0.00 10 1020.3
20260503194801 14 0.0 0.0 0.00 0.00 0.00 10 1020.2
20260503193759 14 0.0 0.0 0.00 0.00 0.00 10 1020.0
20260503192757 14 0.0 0.0 0.00 0.00 0.00 10 1019.8
20260503191756 15 0.0 0.0 0.00 0.00 0.00 10 1019.7
20260503190754 15 0.0 0.0 0.00 0.00 0.00 10 1019.8
20260503185752 15 0.0 0.0 0.00 0.00 0.00 10 1019.7
20260503184750 15 0.0 0.0 0.00 0.00 0.00 10 1019.7
20260503183748 15 0.0 0.0 0.00 0.00 0.00 10 1019.7
20260503182746 15 0.0 0.0 0.00 0.00 0.00 10 1019.7
20260503181744 15 0.0 0.0 0.00 0.00 0.00 10 1019.6
20260503180742 15 0.0 0.0 0.00 0.00 0.00 10 1019.7
20260503175740 15 0.0 0.0 0.00 0.00 0.00 10 1019.7
20260503174738 15 0.0 0.0 0.00 0.00 0.00 10 1019.6
20260503173736 15 0.0 0.0 0.00 0.00 0.00 10 1019.6
20260503172734 16 0.0 0.0 0.00 0.00 0.00 10 1019.5
20260503171732 16 0.0 0.0 0.00 0.00 0.00 10 1019.5
20260503170730 16 0.0 0.0 0.00 0.00 0.00 10 1019.6
20260503150706 18 0.0 0.0 0.00 0.00 0.00 10 1019.3
20260503130644 19 0.0 0.0 0.00 0.00 0.00 10 1020.3
20260503110618 20 0.0 0.0 0.00 0.00 0.00 75 1020.8
20260503081547 16 0.0 0.0 0.00 0.00 0.00 10 1021.9
20260503080544 16 0.0 0.0 0.00 0.00 0.00 10 1021.9
20260503072537 15 0.0 0.0 0.00 0.00 0.00 10 1021.9
20260503071534 15 0.0 0.0 0.00 0.00 0.00 10 1022.0
20260503070533 15 0.0 0.0 0.00 0.00 0.00 10 1022.0
20260503054517 13 0.0 0.0 0.00 0.00 0.00 10 1021.9
20260503053515 13 0.0 0.0 0.00 0.00 0.00 10 1021.9
20260503052513 12 0.0 0.0 0.00 0.00 0.00 10 1022.0
20260503051512 12 0.0 0.0 0.00 0.00 0.00 10 1022.0
20260503050510 12 0.0 0.0 0.00 0.00 0.00 10 1022.0
20260503045508 11 0.0 0.0 0.00 0.00 0.00 10 1022.2
20260503044506 11 0.0 0.0 0.00 0.00 0.00 10 1022.2
20260503043504 11 0.0 0.0 0.00 0.00 0.00 10 1022.3
20260503042502 11 0.0 0.0 0.00 0.00 0.00 10 1022.2
20260503041500 11 0.0 0.0 0.00 0.00 0.00 10 1022.1
20260503040458 11 0.0 0.0 0.00 0.00 0.00 10 1022.2
20260503035456 11 0.0 0.0 0.00 0.00 0.00 10 1022.1
20260503034454 11 0.0 0.0 0.00 0.00 0.00 10 1022.2
20260503033452 11 0.0 0.0 0.00 0.00 0.00 10 1022.2
20260503032450 11 0.0 0.0 0.00 0.00 0.00 10 1022.1
20260503031448 11 0.0 0.0 0.00 0.00 0.00 10 1022.1
20260503030446 11 0.0 0.0 0.00 0.00 0.00 10 1022.1
20260503025444 11 0.0 0.0 0.00 0.00 0.00 10 1022.2
20260503024443 12 0.0 0.0 0.00 0.00 0.00 10 1022.1
20260503023440 11 0.0 0.0 0.00 0.00 0.00 10 1022.2
20260503022438 11 0.0 0.0 0.00 0.00 0.00 10 1022.3
20260503021437 11 0.0 0.0 0.00 0.00 0.00 10 1022.4
20260503020435 12 0.0 0.0 0.00 0.00 0.00 10 1022.3
20260503015433 12 0.0 0.0 0.00 0.00 0.00 10 1022.3
20260503014432 11 0.0 0.0 0.00 0.00 0.00 10 1022.4
20260503013430 11 0.0 0.0 0.00 0.00 0.00 10 1022.6
20260503012428 11 0.0 0.0 0.00 0.00 0.00 10 1022.6
20260503011426 11 0.0 0.0 0.00 0.00 0.00 10 1022.6
20260503010424 11 0.0 0.0 0.00 0.00 0.00 10 1022.7
20260503005421 12 0.0 0.0 0.00 0.00 0.00 10 1022.6
20260503004419 12 0.0 0.0 0.00 0.00 0.00 10 1022.6
20260503003417 12 0.0 0.0 0.00 0.00 0.00 10 1022.8
20260503002415 12 0.0 0.0 0.00 0.00 0.00 10 1022.9
20260503001413 12 0.0 0.0 0.00 0.00 0.00 10 1023.0
20260503000411 12 0.0 0.0 0.00 0.00 0.00 10 1022.9
20260502235410 12 0.0 0.0 0.00 0.00 0.00 10 1023.1
20260502234408 12 0.0 0.0 0.00 0.00 0.00 10 1023.1
20260502233406 12 0.0 0.0 0.00 0.00 0.00 10 1023.1
20260502232403 12 0.0 0.0 0.00 0.00 0.00 10 1023.1
20260502231402 12 0.0 0.0 0.00 0.00 0.00 10 1023.3
20260502230400 12 0.0 0.0 0.00 0.00 0.00 10 1023.3
20260502225358 12 0.0 0.0 0.00 0.00 0.00 10 1023.3
20260502224356 12 0.0 0.0 0.00 0.00 0.00 10 1023.3
20260502223354 12 0.0 0.0 0.00 0.00 0.00 10 1023.3
20260502222353 12 0.0 0.0 0.00 0.00 0.00 10 1023.3
20260502221352 12 0.0 0.0 0.00 0.00 0.00 10 1023.3
20260502220350 12 0.0 0.0 0.00 0.00 0.00 10 1023.4
20260502215806 13 0.0 0.0 0.00 0.00 0.00 10 1023.3
20260502214804 13 0.0 0.0 0.00 0.00 0.00 10 1023.3
20260502213802 13 0.0 0.0 0.00 0.00 0.00 10 1023.3
20260502212800 13 0.0 0.0 0.00 0.00 0.00 10 1023.3
20260502211757 13 0.0 0.0 0.00 0.00 0.00 10 1023.3